Powrót do katalogu

COSMOS 2499 DEB

LostPO
NORAD 56569·DEBRIS·🇷🇺 Russia

Wystrzelony May 23, 2014 z Plesetsk Cosmodrome

Loading…

Następne Przeloty (najbliższe 24 godziny)

TLE

NieaktualneSource: Space-Track

Epoka: Aug 6, 2026, 13:37 UTC

1 56569U 14028BC  26218.56802814  .00000880  00000-0  22661-2 0  9994
2 56569  82.2678 167.5918 0043875  48.3203 312.1660 13.16361727169068

Śledź COSMOS 2499 DEB w czasie rzeczywistym z AllMySat

Download on the App Store